Find Starlink 3591

NORAD ID: 51870 Int'l Des: 2022-022 Owner: SPXS Country: US Constellation: starlink operational
LEOCIRCULAR

現在のビュー

3D地球を読み込み中...

About Starlink 3591

Starlink 3591 (NORAD 51870) is a starlink constellation satellite (v1.5) launched Mar 3, 2022 by SPXS of US. It operates in LEO, CIRCULAR orbit with a mass of 297.00 kg.

Starlink 3591について

説明を読み込み中...

次回通過

Passes for default location (London). Set your location on the main map for personalized predictions.

高度履歴

Loading altitude history...

軌道要素

1 51870U 22022U 26171.43002949 .00000720 00000-0 63294-4 0 9994
2 51870 53.1587 267.7842 0001118 90.5222 269.5897 15.08836817238678
Epoch: Jun 20, 2026 • Age: 40 hours

現在のステータス

高度 543.4 km
速度 7.60 km/s
衛星直下点 43.20°N, 0.43°W
打ち上げ日 Mar 3, 2022
運用期間 4.3 years
タイプ internet

技術仕様

分類 Payload
質量 297.00 kg
乾燥質量 275.00 kg
総質量 297.00 kg
長さ 0.20 m
直径 2.80 m
スパン 9.00 m
形状 Box + pan
製造者 SPXS
バスタイプ Starlink
フェーズステータス In Orbit
所有者/国 SPXS/US

Most Searched